Location: Cz?stochówka
(50.8142°N, 19.0915°E)
Time: 11:11:27
(UTC+00:00)

Helios 1A Rocket - Pass Details

Date: 13 January 2026
Orbit: 426 x 436 km, 98.3° (Epoch: 11 February)

Event Time Altitude Azimuth Distance (km) Brightness Sun altitude
Rises 04:02:04 0° 150° (SSE) 2,448 6.6 -24.3°
Reaches altitude 10° 04:04:07 10° 144° (SE) 1,581 5.7 -24.0°
Maximum altitude 04:07:23 47° 70° (ENE) 613 3.4 -23.5°
Enters shadow 04:07:46 44° 48° (NE) 636 3.3 -23.4°
